Hourly Weather Durham

Today, 4 July, Saturday

Time Temperature Precipitation Wind Pressure Humidity
00:00 +15°C° 0.4 mm 4 mps 748 mmHg 94%
01:00 +14°C° 0.2 mm 3 mps 747 mmHg 95%
02:00 +15°C° 0.2 mm 2 mps 747 mmHg 95%
03:00 +15°C° 0.2 mm 2 mps 747 mmHg 96%
04:00 +15°C° 1.9 mm 1 mps 747 mmHg 96%
05:00 +15°C° 1.9 mm 1 mps 747 mmHg 97%
06:00 +15°C° 1.9 mm 1 mps 747 mmHg 97%
07:00 +16°C° 0.3 mm 1 mps 747 mmHg 96%
08:00 +16°C° 0.3 mm 1 mps 747 mmHg 95%
09:00 +16°C° 0.3 mm 1 mps 747 mmHg 94%
10:00 +16°C° 0.1 mm 1 mps 748 mmHg 94%
11:00 +17°C° 0.1 mm 2 mps 748 mmHg 93%
12:00 +17°C° 0.1 mm 2 mps 748 mmHg 92%
13:00 +17°C° 0.1 mm 3 mps 748 mmHg 92%
14:00 +17°C° 0.1 mm 3 mps 748 mmHg 92%
15:00 +17°C° 0.1 mm 4 mps 748 mmHg 92%
16:00 +17°C° 0.1 mm 4 mps 748 mmHg 92%
17:00 +15°C° 0.1 mm 4 mps 747 mmHg 92%
18:00 +15°C° 0.1 mm 4 mps 747 mmHg 92%
19:00 +15°C° 0 mm 4 mps 747 mmHg 92%
20:00 +15°C° 0 mm 5 mps 747 mmHg 92%
21:00 +15°C° 0 mm 5 mps 746 mmHg 92%
22:00 +15°C° 0.1 mm 5 mps 745 mmHg 92%
23:00 +16°C° 0.1 mm 6 mps 744 mmHg 91%

Tomorrow, 5 July, Sunday

Time Temperature Precipitation Wind Pressure Humidity
00:00 +16°C° 0.1 mm 7 mps 744 mmHg 91%
01:00 +16°C° 0.2 mm 8 mps 743 mmHg 90%
02:00 +16°C° 0.2 mm 9 mps 742 mmHg 89%
03:00 +16°C° 0.2 mm 10 mps 742 mmHg 88%
04:00 +14°C° 0 mm 10 mps 742 mmHg 86%
05:00 +14°C° 0 mm 10 mps 742 mmHg 83%
06:00 +13°C° 0 mm 11 mps 742 mmHg 81%
07:00 +14°C° 0 mm 10 mps 743 mmHg 77%
08:00 +14°C° 0 mm 10 mps 744 mmHg 73%
09:00 +14°C° 0 mm 10 mps 744 mmHg 69%
10:00 +14°C° 0.1 mm 10 mps 745 mmHg 67%
11:00 +14°C° 0.1 mm 10 mps 745 mmHg 65%
12:00 +14°C° 0.1 mm 10 mps 746 mmHg 63%
13:00 +14°C° 0.2 mm 10 mps 746 mmHg 65%
14:00 +14°C° 0.2 mm 10 mps 746 mmHg 66%
15:00 +14°C° 0.2 mm 10 mps 746 mmHg 68%
16:00 +13°C° 0.1 mm 10 mps 746 mmHg 70%
17:00 +13°C° 0.1 mm 9 mps 746 mmHg 72%
18:00 +12°C° 0.1 mm 8 mps 746 mmHg 74%
19:00 +11°C° 0.2 mm 7 mps 746 mmHg 77%
20:00 +10°C° 0.2 mm 6 mps 746 mmHg 81%
21:00 +10°C° 0.2 mm 5 mps 746 mmHg 84%
22:00 +10°C° 0.1 mm 6 mps 747 mmHg 85%
23:00 +9°C° 0.1 mm 7 mps 747 mmHg 86%

Day after tomorrow, 6 July, Monday

Time Temperature Precipitation Wind Pressure Humidity
00:00 +9°C° 0.1 mm 7 mps 747 mmHg 87%
01:00 +9°C° 0 mm 7 mps 748 mmHg 86%
02:00 +9°C° 0 mm 8 mps 748 mmHg 85%
03:00 +9°C° 0 mm 8 mps 748 mmHg 85%
04:00 +9°C° 0.2 mm 7 mps 749 mmHg 86%
05:00 +9°C° 0.2 mm 7 mps 749 mmHg 87%
06:00 +10°C° 0.2 mm 6 mps 750 mmHg 88%
07:00 +11°C° 0.2 mm 6 mps 751 mmHg 83%
08:00 +13°C° 0.2 mm 6 mps 752 mmHg 77%
09:00 +14°C° 0.2 mm 6 mps 752 mmHg 71%
10:00 +15°C° 0.1 mm 6 mps 753 mmHg 70%
11:00 +15°C° 0.1 mm 5 mps 754 mmHg 69%
12:00 +16°C° 0.1 mm 5 mps 755 mmHg 68%
13:00 +16°C° 0.2 mm 5 mps 756 mmHg 68%
14:00 +17°C° 0.2 mm 4 mps 756 mmHg 68%
15:00 +17°C° 0.2 mm 4 mps 757 mmHg 69%
16:00 +16°C° 0.2 mm 3 mps 758 mmHg 71%
17:00 +16°C° 0.2 mm 3 mps 758 mmHg 74%
18:00 +15°C° 0.2 mm 2 mps 759 mmHg 77%
19:00 +13°C° 0.1 mm 3 mps 759 mmHg 79%
20:00 +12°C° 0.1 mm 3 mps 759 mmHg 81%
21:00 +11°C° 0.1 mm 4 mps 760 mmHg 83%
22:00 +10°C° 0 mm 4 mps 760 mmHg 83%
23:00 +8°C° 0 mm 5 mps 760 mmHg 84%

7 July, Tuesday

Time Temperature Precipitation Wind Pressure Humidity
00:00 +7°C° 0 mm 5 mps 760 mmHg 84%
01:00 +7°C° 0 mm 5 mps 760 mmHg 86%
02:00 +7°C° 0 mm 5 mps 759 mmHg 87%
03:00 +7°C° 0 mm 6 mps 759 mmHg 89%
04:00 +8°C° 0 mm 6 mps 759 mmHg 87%
05:00 +9°C° 0 mm 6 mps 759 mmHg 85%
06:00 +10°C° 0 mm 6 mps 759 mmHg 84%
07:00 +11°C° 0 mm 6 mps 759 mmHg 79%
08:00 +13°C° 0 mm 5 mps 759 mmHg 74%
09:00 +14°C° 0 mm 5 mps 760 mmHg 69%
10:00 +14°C° 0.1 mm 5 mps 759 mmHg 68%
11:00 +15°C° 0.1 mm 5 mps 759 mmHg 67%
12:00 +15°C° 0.1 mm 4 mps 759 mmHg 67%
13:00 +15°C° 0.1 mm 4 mps 759 mmHg 67%
14:00 +15°C° 0.1 mm 5 mps 759 mmHg 67%
15:00 +15°C° 0.1 mm 5 mps 759 mmHg 67%
16:00 +15°C° 0 mm 5 mps 759 mmHg 69%
17:00 +15°C° 0 mm 5 mps 759 mmHg 70%
18:00 +14°C° 0 mm 4 mps 759 mmHg 72%
19:00 +13°C° 0 mm 4 mps 759 mmHg 76%
20:00 +12°C° 0 mm 4 mps 759 mmHg 79%
21:00 +11°C° 0 mm 4 mps 759 mmHg 83%
22:00 +11°C° 0 mm 4 mps 758 mmHg 84%
23:00 +11°C° 0 mm 4 mps 757 mmHg 85%

8 July, Wednesday

Time Temperature Precipitation Wind Pressure Humidity
00:00 +11°C° 0 mm 4 mps 757 mmHg 85%
01:00 +12°C° 0.1 mm 5 mps 756 mmHg 86%
02:00 +11°C° 0.1 mm 6 mps 755 mmHg 86%
03:00 +11°C° 0.1 mm 6 mps 754 mmHg 87%
04:00 +12°C° 0.1 mm 7 mps 754 mmHg 87%
05:00 +14°C° 0.1 mm 7 mps 753 mmHg 87%
06:00 +15°C° 0.1 mm 7 mps 752 mmHg 87%
07:00 +15°C° 0.3 mm 7 mps 752 mmHg 88%
08:00 +15°C° 0.3 mm 8 mps 752 mmHg 89%
09:00 +15°C° 0.3 mm 8 mps 751 mmHg 90%
10:00 +16°C° 0.1 mm 9 mps 751 mmHg 85%
11:00 +16°C° 0.1 mm 10 mps 751 mmHg 81%
12:00 +17°C° 0.1 mm 10 mps 751 mmHg 76%
13:00 +17°C° 0 mm 11 mps 751 mmHg 74%
14:00 +16°C° 0 mm 11 mps 751 mmHg 72%
15:00 +16°C° 0 mm 11 mps 751 mmHg 70%
16:00 +14°C° 0 mm 10 mps 751 mmHg 71%
17:00 +13°C° 0 mm 10 mps 751 mmHg 71%
18:00 +13°C° 0 mm 9 mps 751 mmHg 72%
19:00 +12°C° 0 mm 9 mps 752 mmHg 71%
20:00 +12°C° 0 mm 9 mps 752 mmHg 70%
21:00 +11°C° 0 mm 8 mps 753 mmHg 69%
22:00 +11°C° 0 mm 8 mps 753 mmHg 71%
23:00 +10°C° 0 mm 8 mps 754 mmHg 73%

9 July, Thursday

Time Temperature Precipitation Wind Pressure Humidity
00:00 +9°C° 0 mm 8 mps 754 mmHg 74%
01:00 +9°C° 0 mm 7 mps 755 mmHg 77%
02:00 +8°C° 0 mm 6 mps 756 mmHg 80%
03:00 +8°C° 0 mm 5 mps 756 mmHg 83%
04:00 +8°C° 0 mm 5 mps 757 mmHg 82%
05:00 +8°C° 0 mm 5 mps 757 mmHg 80%
06:00 +10°C° 0 mm 4 mps 757 mmHg 79%
07:00 +11°C° 0 mm 4 mps 758 mmHg 73%
08:00 +12°C° 0 mm 4 mps 758 mmHg 67%
09:00 +14°C° 0 mm 3 mps 758 mmHg 61%
10:00 +14°C° 0 mm 3 mps 759 mmHg 60%
11:00 +16°C° 0 mm 3 mps 759 mmHg 58%
12:00 +17°C° 0 mm 3 mps 759 mmHg 57%
13:00 +17°C° 0 mm 3 mps 759 mmHg 58%
14:00 +17°C° 0 mm 3 mps 759 mmHg 59%
15:00 +17°C° 0 mm 3 mps 759 mmHg 60%
16:00 +17°C° 0 mm 3 mps 759 mmHg 63%
17:00 +17°C° 0 mm 3 mps 758 mmHg 65%
18:00 +16°C° 0 mm 3 mps 758 mmHg 68%
19:00 +14°C° 0 mm 3 mps 758 mmHg 74%
20:00 +13°C° 0 mm 2 mps 758 mmHg 79%
21:00 +12°C° 0 mm 2 mps 759 mmHg 84%
22:00 +10°C° 0 mm 2 mps 758 mmHg 85%
23:00 +10°C° 0 mm 2 mps 758 mmHg 86%
Show more